This is the latest recevied weather packets stored in our database for station/object DG0LHZ-10. If no packets are shown the sender has not sent any weather packets the latest 10 day(s).
| Time | Temp. | Humidity | Pressure | Rain* | Wind** | Luminosity | Snow |
|---|---|---|---|---|---|---|---|
| 1777624447 | 17.22° C | 40% | 1031.5 hPa | - | - | - | - |
| 1777623547 | 16.67° C | 41% | 1031.7 hPa | - | - | - | - |
| 1777622647 | 15.56° C | 41% | 1031.6 hPa | - | - | - | - |
| 1777621747 | 14.44° C | 41% | 1031.6 hPa | - | - | - | - |
| 1777620847 | 13.33° C | 42% | 1031.6 hPa | - | - | - | - |
| 1777619947 | 12.78° C | 42% | 1031.7 hPa | - | - | - | - |
| 1777619047 | 11.67° C | 42% | 1031.6 hPa | - | - | - | - |
| 1777618147 | 11.11° C | 43% | 1031.6 hPa | - | - | - | - |
| 1777617247 | 10° C | 43% | 1031.6 hPa | - | - | - | - |
| 1777616347 | 9.44° C | 44% | 1031.6 hPa | - | - | - | - |
| 1777615449 | 8.89° C | 45% | 1031.6 hPa | - | - | - | - |
| 1777614547 | 8.33° C | 45% | 1031.6 hPa | - | - | - | - |
| 1777613646 | 7.78° C | 44% | 1031.6 hPa | - | - | - | - |
| 1777612747 | 7.78° C | 43% | 1031.4 hPa | - | - | - | - |
| 1777611846 | 7.22° C | 43% | 1031.4 hPa | - | - | - | - |
| 1777610946 | 7.22° C | 42% | 1031.5 hPa | - | - | - | - |
| 1777610046 | 7.22° C | 42% | 1031.4 hPa | - | - | - | - |
| 1777609146 | 7.22° C | 41% | 1031.4 hPa | - | - | - | - |
| 1777608246 | 7.22° C | 41% | 1031.3 hPa | - | - | - | - |
| 1777607346 | 7.78° C | 41% | 1031.3 hPa | - | - | - | - |
| 1777606446 | 7.78° C | 40% | 1031.2 hPa | - | - | - | - |
| 1777605546 | 7.78° C | 40% | 1031.1 hPa | - | - | - | - |
| 1777604646 | 8.33° C | 39% | 1031.2 hPa | - | - | - | - |
| 1777603746 | 8.33° C | 40% | 1031.3 hPa | - | - | - | - |
| 1777602846 | 8.33° C | 39% | 1031.1 hPa | - | - | - | - |
* Rain since midnight (hover to see other rain measurements)
** Current wind speed in m/s (hover to see current wind gust speed)